| time (UTC) | temp F | wind direction | speed MPH | gust MPH | rain 1hr in | rain 24hr in | rain mn in | humidity % | barometer mb |
| 20260905093822 | 72 | 87 | 0.0 | 4.0 | 0.00 | 0.04 | 0.04 | 96 | 1010.4 |
| 20260905093331 | 72 | 360 | 0.0 | 4.0 | 0.00 | 0.04 | 0.04 | 96 | 1010.4 |
| 20260905092841 | 72 | 360 | 1.0 | 4.0 | 0.00 | 0.04 | 0.04 | 96 | 1010.4 |
| 20260905092330 | 72 | 360 | 2.0 | 7.0 | 0.00 | 0.04 | 0.04 | 96 | 1010.4 |
| 20260905091837 | 72 | 360 | 4.0 | 6.0 | 0.00 | 0.04 | 0.04 | 96 | 1010.4 |
| 20260905091328 | 73 | 360 | 0.0 | 4.0 | 0.00 | 0.04 | 0.04 | 96 | 1010.2 |
| 20260905090835 | 73 | 360 | 0.0 | 4.0 | 0.00 | 0.04 | 0.04 | 96 | 1010.2 |
| 20260905090325 | 73 | 360 | 0.0 | 4.0 | 0.00 | 0.04 | 0.04 | 96 | 1010.2 |
| 20260905085836 | 73 | 360 | 0.0 | 4.0 | 0.00 | 0.04 | 0.04 | 96 | 1010.2 |
| 20260905085326 | 73 | 360 | 1.0 | 4.0 | 0.00 | 0.04 | 0.04 | 96 | 1010.2 |
| 20260905084833 | 73 | 63 | 2.0 | 6.0 | 0.00 | 0.04 | 0.04 | 96 | 1010.2 |
| 20260905084325 | 73 | 360 | 3.0 | 6.0 | 0.00 | 0.04 | 0.04 | 96 | 1010.2 |
| 20260905083832 | 73 | 360 | 0.0 | 0.0 | 0.00 | 0.04 | 0.04 | 96 | 1010.1 |
| 20260905083340 | 73 | 360 | 0.0 | 0.0 | 0.00 | 0.04 | 0.04 | 96 | 1009.9 |
| 20260905082830 | 73 | 360 | 0.0 | 0.0 | 0.00 | 0.04 | 0.04 | 96 | 1009.8 |
| 20260905082405 | 73 | 360 | 0.0 | 0.0 | 0.00 | 0.04 | 0.04 | 96 | 1009.7 |
| 20260905081854 | 73 | 360 | 0.0 | 0.0 | 0.00 | 0.04 | 0.04 | 96 | 1009.7 |
| 20260905081344 | 73 | 360 | 0.0 | 0.0 | 0.00 | 0.04 | 0.04 | 96 | 1009.7 |
| 20260905080852 | 73 | 360 | 0.0 | 0.0 | 0.00 | 0.04 | 0.04 | 96 | 1009.7 |
| 20260905080341 | 73 | 360 | 0.0 | 0.0 | 0.00 | 0.04 | 0.04 | 96 | 1009.7 |
| 20260905075831 | 73 | 360 | 0.0 | 0.0 | 0.00 | 0.04 | 0.04 | 95 | 1009.6 |
| 20260905075339 | 73 | 360 | 0.0 | 0.0 | 0.00 | 0.04 | 0.04 | 96 | 1009.7 |
| 20260905074850 | 73 | 360 | 0.0 | 0.0 | 0.00 | 0.04 | 0.04 | 96 | 1009.8 |
| 20260905074340 | 73 | 360 | 0.0 | 0.0 | 0.00 | 0.04 | 0.04 | 95 | 1009.8 |
| 20260905073829 | 73 | 360 | 0.0 | 0.0 | 0.00 | 0.04 | 0.04 | 95 | 1009.9 |
| 20260905073338 | 73 | 360 | 0.0 | 0.0 | 0.00 | 0.04 | 0.04 | 95 | 1010.0 |
| 20260905072829 | 74 | 360 | 0.0 | 3.0 | 0.00 | 0.04 | 0.04 | 95 | 1010.0 |
| 20260905072333 | 74 | 360 | 0.0 | 3.0 | 0.00 | 0.04 | 0.04 | 95 | 1009.9 |
| 20260905071824 | 74 | 360 | 1.0 | 2.0 | 0.00 | 0.04 | 0.04 | 95 | 1010.1 |
| 20260905071334 | 74 | 360 | 0.0 | 2.0 | 0.00 | 0.04 | 0.04 | 95 | 1010.1 |
| 20260905070823 | 74 | 360 | 0.0 | 0.0 | 0.00 | 0.04 | 0.04 | 95 | 1010.1 |
| 20260905070333 | 74 | 360 | 0.0 | 0.0 | 0.00 | 0.04 | 0.04 | 95 | 1010.1 |
| 20260905065823 | 74 | 360 | 0.0 | 0.0 | 0.00 | 0.04 | 0.04 | 95 | 1010.1 |
| 20260905065333 | 74 | 360 | 0.0 | 0.0 | 0.00 | 0.04 | 0.04 | 95 | 1010.1 |
| 20260905064823 | 74 | 360 | 0.0 | 0.0 | 0.00 | 0.04 | 0.04 | 95 | 1010.2 |
| 20260905064335 | 74 | 360 | 0.0 | 0.0 | 0.00 | 0.04 | 0.04 | 95 | 1010.2 |
| 20260905063844 | 74 | 360 | 0.0 | 0.0 | 0.00 | 0.04 | 0.04 | 95 | 1010.2 |
| 20260905063332 | 74 | 360 | 0.0 | 0.0 | 0.00 | 0.04 | 0.04 | 95 | 1010.2 |
| 20260905062843 | 74 | 360 | 0.0 | 0.0 | 0.00 | 0.04 | 0.04 | 94 | 1010.2 |
| 20260905062358 | 74 | 360 | 0.0 | 0.0 | 0.00 | 0.04 | 0.04 | 94 | 1010.4 |
| 20260905061826 | 74 | 360 | 0.0 | 0.0 | 0.00 | 0.04 | 0.04 | 94 | 1010.3 |
| 20260905061404 | 74 | 360 | 0.0 | 0.0 | 0.00 | 0.04 | 0.04 | 94 | 1010.4 |
| 20260905060830 | 74 | 360 | 0.0 | 0.0 | 0.00 | 0.04 | 0.04 | 94 | 1010.4 |
| 20260905060322 | 74 | 360 | 0.0 | 0.0 | 0.00 | 0.04 | 0.04 | 94 | 1010.4 |
| 20260905055830 | 74 | 360 | 0.0 | 0.0 | 0.00 | 0.04 | 0.04 | 94 | 1010.5 |
| 20260905055339 | 74 | 360 | 0.0 | 0.0 | 0.00 | 0.04 | 0.04 | 94 | 1010.5 |
| 20260905054828 | 74 | 360 | 0.0 | 0.0 | 0.00 | 0.04 | 0.04 | 94 | 1010.4 |
| 20260905054339 | 74 | 360 | 0.0 | 1.0 | 0.00 | 0.04 | 0.04 | 93 | 1010.6 |
| 20260905053828 | 74 | 360 | 0.0 | 1.0 | 0.00 | 0.04 | 0.04 | 93 | 1010.6 |
| 20260905053336 | 74 | 360 | 0.0 | 0.0 | 0.00 | 0.04 | 0.04 | 93 | 1010.5 |
| 20260905052823 | 75 | 360 | 0.0 | 0.0 | 0.00 | 0.04 | 0.04 | 92 | 1010.4 |
| 20260905052334 | 75 | 360 | 0.0 | 0.0 | 0.00 | 0.04 | 0.04 | 93 | 1010.5 |
| 20260905051841 | 75 | 360 | 0.0 | 0.0 | 0.00 | 0.04 | 0.04 | 92 | 1010.5 |
| 20260905051333 | 75 | 360 | 0.0 | 0.0 | 0.00 | 0.04 | 0.04 | 92 | 1010.4 |
| 20260905050840 | 75 | 360 | 0.0 | 1.0 | 0.00 | 0.04 | 0.04 | 92 | 1010.4 |
| 20260905050330 | 75 | 360 | 0.0 | 1.0 | 0.00 | 0.04 | 0.04 | 92 | 1010.3 |
| 20260905045838 | 75 | 360 | 0.0 | 1.0 | 0.00 | 0.04 | 0.04 | 92 | 1010.4 |
| 20260905045327 | 75 | 360 | 0.0 | 1.0 | 0.00 | 0.04 | 0.04 | 92 | 1010.3 |
| 20260905044836 | 75 | 360 | 0.0 | 2.0 | 0.00 | 0.04 | 0.04 | 92 | 1010.3 |
| 20260905044327 | 75 | 360 | 0.0 | 5.0 | 0.00 | 0.04 | 0.04 | 92 | 1010.4 |
| 20260905043835 | 75 | 360 | 2.0 | 5.0 | 0.00 | 0.04 | 0.04 | 92 | 1010.4 |
| 20260905043345 | 75 | 360 | 2.0 | 4.0 | 0.00 | 0.04 | 0.04 | 92 | 1010.5 |
| 20260905042834 | 75 | 360 | 0.0 | 2.0 | 0.00 | 0.04 | 0.04 | 92 | 1010.5 |
| 20260905042343 | 75 | 360 | 0.0 | 2.0 | 0.00 | 0.04 | 0.04 | 92 | 1010.4 |
| 20260905041848 | 75 | 360 | 1.0 | 2.0 | 0.00 | 0.04 | 0.04 | 92 | 1010.4 |
| 20260905041338 | 75 | 360 | 0.0 | 0.0 | 0.00 | 0.04 | 0.04 | 92 | 1010.6 |
| 20260905040827 | 75 | 360 | 0.0 | 1.0 | 0.00 | 0.04 | 0.04 | 92 | 1010.6 |
| 20260905040336 | 75 | 360 | 0.0 | 3.0 | 0.00 | 0.04 | 0.04 | 92 | 1010.6 |
| 20260905035825 | 75 | 360 | 0.0 | 3.0 | 0.00 | 0.04 | 0.04 | 92 | 1010.6 |
| 20260905035333 | 75 | 360 | 0.0 | 0.0 | 0.00 | 0.04 | 0.04 | 92 | 1010.7 |
| 20260905034843 | 75 | 360 | 0.0 | 0.0 | 0.00 | 0.04 | 0.04 | 92 | 1010.5 |
| 20260905034334 | 75 | 360 | 0.0 | 3.0 | 0.00 | 0.04 | 0.04 | 91 | 1010.6 |
| 20260905033822 | 75 | 360 | 0.0 | 3.0 | 0.00 | 0.04 | 0.04 | 91 | 1010.8 |
| 20260905033334 | 75 | 360 | 0.0 | 0.0 | 0.00 | 0.04 | 0.04 | 91 | 1010.8 |
| 20260905032823 | 75 | 360 | 0.0 | 2.0 | 0.00 | 0.04 | 0.04 | 91 | 1010.9 |
| 20260905032331 | 76 | 360 | 0.0 | 3.0 | 0.00 | 0.04 | 0.04 | 91 | 1010.9 |
| 20260905031841 | 76 | 360 | 1.0 | 4.0 | 0.00 | 0.04 | 0.04 | 91 | 1010.9 |
| 20260905031332 | 76 | 360 | 0.0 | 4.0 | 0.00 | 0.04 | 0.04 | 90 | 1010.9 |
| 20260905030840 | 76 | 360 | 3.0 | 4.0 | 0.00 | 0.04 | 0.04 | 90 | 1010.9 |
| 20260905030331 | 76 | 360 | 1.0 | 4.0 | 0.00 | 0.04 | 0.04 | 90 | 1010.8 |
| 20260905025840 | 76 | 360 | 0.0 | 3.0 | 0.00 | 0.04 | 0.04 | 90 | 1011.0 |
| 20260905025331 | 76 | 360 | 0.0 | 3.0 | 0.00 | 0.04 | 0.04 | 89 | 1010.9 |
| 20260905024841 | 76 | 360 | 1.0 | 2.0 | 0.00 | 0.04 | 0.04 | 89 | 1011.0 |
| 20260905024352 | 76 | 360 | 1.0 | 3.0 | 0.00 | 0.04 | 0.04 | 89 | 1010.9 |
| 20260905023833 | 76 | 360 | 0.0 | 3.0 | 0.00 | 0.04 | 0.04 | 89 | 1011.0 |
| 20260905023321 | 76 | 360 | 0.0 | 2.0 | 0.00 | 0.04 | 0.04 | 89 | 1010.9 |
| 20260905022830 | 76 | 360 | 0.0 | 5.0 | 0.00 | 0.04 | 0.04 | 89 | 1011.0 |
| 20260905022339 | 77 | 360 | 1.0 | 5.0 | 0.00 | 0.04 | 0.04 | 88 | 1011.1 |
| 20260905021829 | 77 | 360 | 1.0 | 4.0 | 0.00 | 0.04 | 0.04 | 88 | 1011.1 |
| 20260905021341 | 77 | 360 | 2.0 | 5.0 | 0.00 | 0.04 | 0.04 | 87 | 1010.8 |
| 20260905020828 | 77 | 360 | 1.0 | 5.0 | 0.00 | 0.04 | 0.04 | 87 | 1010.8 |
| 20260905020336 | 77 | 360 | 2.0 | 7.0 | 0.00 | 0.04 | 0.04 | 86 | 1010.8 |
| 20260905015846 | 77 | 360 | 3.0 | 8.0 | 0.00 | 0.04 | 0.04 | 86 | 1010.9 |
| 20260905015356 | 77 | 360 | 1.0 | 8.0 | 0.00 | 0.04 | 0.04 | 86 | 1010.9 |
| 20260905014843 | 78 | 360 | 4.0 | 6.0 | 0.00 | 0.04 | 0.04 | 85 | 1010.9 |
| 20260905014333 | 78 | 360 | 2.0 | 6.0 | 0.00 | 0.04 | 0.04 | 85 | 1010.9 |
| 20260905013839 | 78 | 360 | 1.0 | 5.0 | 0.00 | 0.04 | 0.04 | 84 | 1010.9 |
| 20260905013348 | 78 | 360 | 2.0 | 5.0 | 0.00 | 0.04 | 0.04 | 84 | 1010.9 |
| 20260905012857 | 79 | 360 | 2.0 | 9.0 | 0.00 | 0.04 | 0.04 | 83 | 1010.9 |
| 20260905012345 | 79 | 360 | 4.0 | 9.0 | 0.00 | 0.04 | 0.04 | 82 | 1010.7 |
| 20260905011829 | 80 | 360 | 2.0 | 4.0 | 0.00 | 0.04 | 0.04 | 82 | 1010.6 |
| 20260905011340 | 80 | 360 | 1.0 | 3.0 | 0.00 | 0.04 | 0.04 | 82 | 1010.5 |
| 20260905010828 | 80 | 360 | 0.0 | 6.0 | 0.00 | 0.04 | 0.04 | 81 | 1010.3 |
| 20260905010337 | 81 | 360 | 2.0 | 6.0 | 0.00 | 0.04 | 0.04 | 80 | 1010.3 |
| 20260905005828 | 81 | 360 | 4.0 | 6.0 | 0.00 | 0.04 | 0.04 | 79 | 1010.1 |
| 20260905005337 | 82 | 360 | 3.0 | 6.0 | 0.00 | 0.04 | 0.04 | 79 | 1009.8 |
| 20260905004847 | 83 | 360 | 2.0 | 6.0 | 0.00 | 0.04 | 0.04 | 80 | 1009.8 |
| 20260905004336 | 84 | 360 | 0.0 | 3.0 | 0.00 | 0.04 | 0.04 | 80 | 1009.7 |
| 20260905003826 | 84 | 227 | 0.0 | 0.0 | 0.00 | 0.04 | 0.04 | 79 | 1009.5 |
| 20260905003334 | 85 | 227 | 0.0 | 0.0 | 0.00 | 0.04 | 0.04 | 79 | 1009.6 |
| 20260905002844 | 85 | 228 | 0.0 | 0.0 | 0.00 | 0.04 | 0.04 | 78 | 1009.6 |
| 20260905002354 | 85 | 360 | 0.0 | 0.0 | 0.00 | 0.04 | 0.04 | 77 | 1009.7 |
| 20260905001823 | 85 | 227 | 0.0 | 0.0 | 0.00 | 0.04 | 0.04 | 77 | 1009.7 |
| 20260905001334 | 85 | 360 | 0.0 | 0.0 | 0.00 | 0.04 | 0.04 | 77 | 1009.8 |
| 20260905000840 | 86 | 209 | 0.0 | 0.0 | 0.00 | 0.04 | 0.04 | 76 | 1009.7 |
| 20260905000329 | 86 | 207 | 0.0 | 0.0 | 0.00 | 0.04 | 0.04 | 76 | 1009.6 |
| 20260904235837 | 86 | 360 | 0.0 | 0.0 | 0.00 | 0.04 | 0.04 | 75 | 1009.5 |
| 20260904235346 | 86 | 209 | 0.0 | 0.0 | 0.00 | 0.04 | 0.04 | 75 | 1009.4 |
| 20260904234832 | 86 | 360 | 0.0 | 0.0 | 0.00 | 0.04 | 0.04 | 74 | 1009.3 |
| 20260904234324 | 87 | 209 | 0.0 | 0.0 | 0.00 | 0.04 | 0.04 | 74 | 1009.3 |
| 20260904233832 | 87 | 209 | 0.0 | 0.0 | 0.00 | 0.04 | 0.04 | 74 | 1009.2 |
| 20260904233340 | 87 | 209 | 0.0 | 3.0 | 0.00 | 0.04 | 0.04 | 73 | 1009.1 |
| 20260904232850 | 87 | 360 | 0.0 | 5.0 | 0.00 | 0.04 | 0.04 | 73 | 1009.0 |
| 20260904232339 | 87 | 360 | 3.0 | 9.0 | 0.00 | 0.04 | 0.04 | 72 | 1009.1 |
| 20260904231828 | 87 | 360 | 2.0 | 9.0 | 0.00 | 0.04 | 0.04 | 72 | 1009.1 |
| 20260904231339 | 88 | 360 | 4.0 | 8.0 | 0.00 | 0.04 | 0.04 | 71 | 1009.2 |
| 20260904230826 | 88 | 205 | 5.0 | 10.0 | 0.00 | 0.04 | 0.04 | 70 | 1009.2 |
| 20260904230335 | 88 | 205 | 5.0 | 10.0 | 0.00 | 0.04 | 0.04 | 70 | 1009.2 |
| 20260904225825 | 88 | 360 | 7.0 | 11.0 | 0.00 | 0.04 | 0.04 | 69 | 1009.2 |
| 20260904225334 | 88 | 360 | 6.0 | 14.0 | 0.00 | 0.04 | 0.04 | 68 | 1009.1 |
| 20260904224823 | 89 | 360 | 9.0 | 13.0 | 0.00 | 0.04 | 0.04 | 68 | 1009.1 |
| 20260904224334 | 89 | 207 | 8.0 | 14.0 | 0.00 | 0.04 | 0.04 | 67 | 1009.2 |
| 20260904223822 | 89 | 360 | 8.0 | 13.0 | 0.00 | 0.04 | 0.04 | 67 | 1009.2 |
| 20260904223359 | 89 | 360 | 7.0 | 12.0 | 0.00 | 0.04 | 0.04 | 67 | 1009.3 |
| 20260904222824 | 89 | 360 | 8.0 | 12.0 | 0.00 | 0.04 | 0.04 | 66 | 1009.2 |
| 20260904222332 | 89 | 205 | 6.0 | 12.0 | 0.00 | 0.04 | 0.04 | 66 | 1009.2 |
| 20260904221822 | 90 | 360 | 8.0 | 14.0 | 0.00 | 0.04 | 0.04 | 66 | 1009.2 |
| 20260904221354 | 90 | 360 | 5.0 | 14.0 | 0.00 | 0.04 | 0.04 | 66 | 1009.3 |
| 20260904220906 | 90 | 360 | 5.0 | 13.0 | 0.00 | 0.04 | 0.04 | 65 | 1009.3 |
| 20260904220356 | 90 | 360 | 4.0 | 13.0 | 0.00 | 0.04 | 0.04 | 66 | 1009.3 |
| 20260904215824 | 90 | 360 | 6.0 | 13.0 | 0.00 | 0.04 | 0.04 | 65 | 1009.2 |
| 20260904215401 | 90 | 360 | 8.0 | 13.0 | 0.00 | 0.04 | 0.04 | 64 | 1009.3 |
| 20260904214830 | 90 | 360 | 5.0 | 13.0 | 0.00 | 0.04 | 0.04 | 66 | 1009.2 |
| 20260904214343 | 90 | 360 | 3.0 | 13.0 | 0.00 | 0.04 | 0.04 | 67 | 1009.1 |
| 20260904213850 | 90 | 209 | 6.0 | 11.0 | 0.00 | 0.04 | 0.04 | 66 | 1009.3 |
| 20260904213338 | 89 | 360 | 5.0 | 10.0 | 0.00 | 0.04 | 0.04 | 67 | 1009.3 |
| 20260904212826 | 89 | 207 | 6.0 | 10.0 | 0.00 | 0.04 | 0.04 | 66 | 1009.3 |
| 20260904212336 | 89 | 191 | 3.0 | 10.0 | 0.00 | 0.04 | 0.04 | 65 | 1009.3 |
| 20260904211845 | 89 | 360 | 5.0 | 10.0 | 0.00 | 0.04 | 0.04 | 66 | 1009.4 |
| 20260904211355 | 89 | 178 | 4.0 | 10.0 | 0.00 | 0.04 | 0.04 | 66 | 1009.2 |
| 20260904210839 | 88 | 167 | 4.0 | 8.0 | 0.00 | 0.04 | 0.04 | 68 | 1009.2 |
| 20260904210329 | 88 | 209 | 5.0 | 8.0 | 0.00 | 0.04 | 0.04 | 69 | 1009.2 |
| 20260904205834 | 88 | 360 | 2.0 | 5.0 | 0.00 | 0.04 | 0.04 | 68 | 1009.2 |
| 20260904205324 | 88 | 360 | 1.0 | 7.0 | 0.00 | 0.04 | 0.04 | 67 | 1009.2 |
| 20260904204859 | 88 | 360 | 3.0 | 10.0 | 0.00 | 0.04 | 0.04 | 66 | 1009.1 |
| 20260904204329 | 89 | 360 | 4.0 | 10.0 | 0.00 | 0.04 | 0.04 | 65 | 1009.2 |
| 20260904203835 | 89 | 360 | 5.0 | 13.0 | 0.00 | 0.04 | 0.04 | 64 | 1009.3 |
| 20260904203325 | 89 | 360 | 7.0 | 13.0 | 0.00 | 0.04 | 0.04 | 64 | 1009.2 |
| 20260904202833 | 89 | 360 | 5.0 | 13.0 | 0.00 | 0.04 | 0.04 | 66 | 1009.2 |
| 20260904202341 | 89 | 360 | 5.0 | 13.0 | 0.00 | 0.04 | 0.04 | 64 | 1009.4 |
| 20260904201831 | 88 | 360 | 5.0 | 15.0 | 0.00 | 0.04 | 0.04 | 66 | 1009.5 |
| 20260904201339 | 88 | 360 | 6.0 | 15.0 | 0.00 | 0.04 | 0.04 | 64 | 1009.5 |
| 20260904200826 | 88 | 360 | 6.0 | 15.0 | 0.00 | 0.04 | 0.04 | 66 | 1009.5 |
| 20260904200336 | 88 | 360 | 7.0 | 15.0 | 0.00 | 0.04 | 0.04 | 67 | 1009.6 |
| 20260904195825 | 87 | 360 | 5.0 | 14.0 | 0.00 | 0.04 | 0.04 | 68 | 1009.6 |
| 20260904195400 | 87 | 360 | 5.0 | 14.0 | 0.00 | 0.04 | 0.04 | 68 | 1009.7 |
| 20260904194828 | 87 | 360 | 5.0 | 13.0 | 0.00 | 0.04 | 0.04 | 68 | 1009.8 |
| 20260904194338 | 87 | 360 | 6.0 | 14.0 | 0.00 | 0.04 | 0.04 | 69 | 1009.9 |
| 20260904193826 | 86 | 360 | 8.0 | 14.0 | 0.00 | 0.04 | 0.04 | 67 | 1009.9 |
| 20260904193402 | 86 | 360 | 6.0 | 12.0 | 0.00 | 0.04 | 0.04 | 69 | 1010.0 |
| 20260904192834 | 86 | 360 | 4.0 | 12.0 | 0.00 | 0.04 | 0.04 | 70 | 1010.1 |
| 20260904192339 | 85 | 184 | 6.0 | 12.0 | 0.00 | 0.04 | 0.04 | 68 | 1010.2 |
| 20260904191846 | 85 | 181 | 5.0 | 11.0 | 0.00 | 0.04 | 0.04 | 70 | 1010.2 |
| 20260904191336 | 85 | 360 | 5.0 | 13.0 | 0.00 | 0.04 | 0.04 | 69 | 1010.3 |
| 20260904190824 | 85 | 166 | 7.0 | 14.0 | 0.00 | 0.04 | 0.04 | 69 | 1010.6 |
| 20260904190332 | 84 | 360 | 8.0 | 14.0 | 0.00 | 0.04 | 0.04 | 69 | 1010.7 |
| 20260904185822 | 84 | 360 | 3.0 | 11.0 | 0.00 | 0.04 | 0.04 | 72 | 1010.7 |
| 20260904185358 | 84 | 360 | 4.0 | 12.0 | 0.00 | 0.04 | 0.04 | 73 | 1010.8 |
| 20260904184826 | 83 | 148 | 7.0 | 18.0 | 0.00 | 0.04 | 0.04 | 73 | 1011.0 |
| 20260904184337 | 83 | 360 | 6.0 | 18.0 | 0.00 | 0.04 | 0.04 | 74 | 1011.0 |
| 20260904183846 | 82 | 360 | 9.0 | 14.0 | 0.00 | 0.04 | 0.04 | 75 | 1011.1 |
| 20260904183401 | 81 | 360 | 4.0 | 14.0 | 0.00 | 0.04 | 0.04 | 80 | 1011.0 |
| 20260904182829 | 81 | 360 | 5.0 | 14.0 | 0.00 | 0.04 | 0.04 | 79 | 1011.2 |
| 20260904182338 | 80 | 360 | 9.0 | 14.0 | 0.00 | 0.04 | 0.04 | 79 | 1011.2 |
| 20260904181827 | 79 | 360 | 3.0 | 12.0 | 0.00 | 0.04 | 0.04 | 84 | 1011.3 |
| 20260904181337 | 78 | 360 | 6.0 | 12.0 | 0.00 | 0.04 | 0.04 | 85 | 1011.4 |
| 20260904180825 | 78 | 360 | 7.0 | 16.0 | 0.01 | 0.04 | 0.04 | 85 | 1011.3 |
| 20260904180334 | 77 | 360 | 7.0 | 16.0 | 0.01 | 0.04 | 0.04 | 85 | 1011.5 |
| 20260904175837 | 76 | 360 | 7.0 | 12.0 | 0.01 | 0.04 | 0.04 | 88 | 1011.6 |
| 20260904175326 | 76 | 360 | 8.0 | 12.0 | 0.02 | 0.04 | 0.04 | 90 | 1011.5 |
| 20260904174835 | 75 | 360 | 6.0 | 17.0 | 0.02 | 0.04 | 0.04 | 92 | 1011.3 |
| 20260904174347 | 74 | 360 | 8.0 | 19.0 | 0.03 | 0.04 | 0.04 | 92 | 1011.2 |
| 20260904173855 | 74 | 360 | 7.0 | 19.0 | 0.03 | 0.04 | 0.04 | 94 | 1011.2 |
| 20260904173323 | 73 | 360 | 8.0 | 17.0 | 0.03 | 0.04 | 0.04 | 94 | 1011.1 |
| 20260904172833 | 73 | 360 | 7.0 | 16.0 | 0.03 | 0.04 | 0.04 | 94 | 1011.4 |
| 20260904172340 | 73 | 360 | 8.0 | 15.0 | 0.03 | 0.04 | 0.04 | 93 | 1011.5 |
| 20260904171828 | 73 | 360 | 7.0 | 12.0 | 0.03 | 0.04 | 0.04 | 93 | 1011.8 |
| 20260904171346 | 73 | 360 | 6.0 | 12.0 | 0.03 | 0.04 | 0.04 | 92 | 1012.2 |
| 20260904170852 | 73 | 360 | 7.0 | 12.0 | 0.02 | 0.03 | 0.03 | 91 | 1012.7 |
| 20260904170341 | 74 | 360 | 7.0 | 12.0 | 0.02 | 0.03 | 0.03 | 91 | 1013.3 |
| 20260904165830 | 74 | 360 | 3.0 | 8.0 | 0.02 | 0.03 | 0.03 | 89 | 1013.7 |
| 20260904165338 | 74 | 360 | 0.0 | 5.0 | 0.01 | 0.02 | 0.02 | 88 | 1014.4 |
| 20260904164826 | 75 | 360 | 1.0 | 9.0 | 0.01 | 0.05 | 0.02 | 87 | 1014.0 |
| 20260904164402 | 75 | 360 | 0.0 | 9.0 | 0.00 | 0.04 | 0.01 | 87 | 1014.4 |
| 20260904163830 | 76 | 360 | 2.0 | 8.0 | 0.00 | 0.04 | 0.01 | 87 | 1014.2 |
| 20260904163335 | 76 | 360 | 3.0 | 8.0 | 0.00 | 0.04 | 0.01 | 85 | 1013.9 |
| 20260904162824 | 76 | 360 | 1.0 | 11.0 | 0.00 | 0.04 | 0.01 | 87 | 1013.9 |
| 20260904162334 | 75 | 360 | 4.0 | 11.0 | 0.00 | 0.04 | 0.01 | 88 | 1013.9 |
| 20260904161822 | 75 | 360 | 3.0 | 14.0 | 0.00 | 0.04 | 0.01 | 89 | 1013.9 |
| 20260904161332 | 75 | 360 | 1.0 | 10.0 | 0.00 | 0.04 | 0.01 | 88 | 1013.9 |
| 20260904160838 | 75 | 360 | 5.0 | 10.0 | 0.00 | 0.04 | 0.01 | 88 | 1013.9 |
| 20260904160348 | 75 | 360 | 1.0 | 9.0 | 0.00 | 0.04 | 0.01 | 89 | 1013.7 |
| 20260904155837 | 75 | 360 | 3.0 | 8.0 | 0.01 | 0.04 | 0.01 | 89 | 1013.5 |
| 20260904155346 | 75 | 360 | 2.0 | 14.0 | 0.01 | 0.04 | 0.01 | 89 | 1013.7 |
| 20260904154854 | 74 | 360 | 3.0 | 14.0 | 0.01 | 0.04 | 0.01 | 89 | 1013.9 |
| 20260904154325 | 74 | 360 | 3.0 | 12.0 | 0.01 | 0.04 | 0.01 | 90 | 1013.9 |
| 20260904153900 | 74 | 360 | 5.0 | 12.0 | 0.01 | 0.04 | 0.01 | 90 | 1014.0 |
| 20260904153327 | 74 | 360 | 6.0 | 17.0 | 0.01 | 0.04 | 0.01 | 90 | 1014.1 |
| 20260904152836 | 74 | 360 | 7.0 | 17.0 | 0.01 | 0.04 | 0.01 | 90 | 1014.2 |
| 20260904152347 | 74 | 360 | 9.0 | 18.0 | 0.01 | 0.04 | 0.01 | 90 | 1014.1 |
| 20260904151833 | 74 | 360 | 9.0 | 18.0 | 0.01 | 0.04 | 0.01 | 90 | 1014.0 |
| 20260904151339 | 74 | 360 | 6.0 | 15.0 | 0.01 | 0.04 | 0.01 | 91 | 1014.2 |
| 20260904150846 | 74 | 360 | 6.0 | 16.0 | 0.01 | 0.04 | 0.01 | 90 | 1014.4 |
| 20260904150334 | 75 | 360 | 7.0 | 16.0 | 0.01 | 0.04 | 0.01 | 90 | 1014.2 |
| 20260904145842 | 75 | 360 | 8.0 | 16.0 | 0.00 | 0.03 | 0.00 | 90 | 1014.2 |
| 20260904145352 | 75 | 360 | 7.0 | 16.0 | 0.00 | 0.03 | 0.00 | 89 | 1014.0 |
| 20260904144840 | 76 | 360 | 7.0 | 14.0 | 0.00 | 0.03 | 0.00 | 89 | 1013.9 |
| 20260904144332 | 76 | 360 | 7.0 | 13.0 | 0.00 | 0.03 | 0.00 | 88 | 1013.7 |
| 20260904143838 | 76 | 360 | 8.0 | 13.0 | 0.00 | 0.03 | 0.00 | 88 | 1013.6 |
| 20260904143327 | 76 | 360 | 4.0 | 9.0 | 0.00 | 0.03 | 0.00 | 88 | 1013.1 |
| 20260904142835 | 76 | 360 | 3.0 | 10.0 | 0.00 | 0.03 | 0.00 | 88 | 1012.7 |
| 20260904142325 | 76 | 360 | 3.0 | 11.0 | 0.00 | 0.03 | 0.00 | 88 | 1012.9 |
| 20260904141834 | 76 | 360 | 7.0 | 13.0 | 0.00 | 0.03 | 0.00 | 87 | 1012.8 |
| 20260904141346 | 76 | 360 | 7.0 | 14.0 | 0.00 | 0.03 | 0.00 | 87 | 1012.6 |
| 20260904140854 | 76 | 360 | 9.0 | 14.0 | 0.00 | 0.03 | 0.00 | 88 | 1012.6 |
| 20260904140341 | 75 | 360 | 6.0 | 11.0 | 0.00 | 0.03 | 0.00 | 89 | 1012.7 |
| 20260904135849 | 75 | 360 | 4.0 | 9.0 | 0.00 | 0.03 | 0.00 | 90 | 1012.8 |
| 20260904135334 | 75 | 360 | 5.0 | 10.0 | 0.00 | 0.03 | 0.00 | 91 | 1013.0 |
| 20260904134841 | 74 | 360 | 3.0 | 12.0 | 0.00 | 0.03 | 0.00 | 92 | 1012.9 |
| 20260904134350 | 74 | 360 | 6.0 | 14.0 | 0.00 | 0.03 | 0.00 | 93 | 1012.6 |
| 20260904133858 | 73 | 360 | 3.0 | 14.0 | 0.00 | 0.03 | 0.00 | 93 | 1012.7 |
| 20260904133324 | 73 | 360 | 6.0 | 10.0 | 0.00 | 0.03 | 0.00 | 93 | 1012.6 |
| 20260904132832 | 73 | 360 | 5.0 | 10.0 | 0.00 | 0.03 | 0.00 | 93 | 1012.7 |
| 20260904132342 | 73 | 360 | 6.0 | 12.0 | 0.00 | 0.03 | 0.00 | 93 | 1012.7 |
| 20260904131850 | 73 | 360 | 8.0 | 12.0 | 0.00 | 0.03 | 0.00 | 93 | 1012.8 |
| 20260904131339 | 73 | 360 | 4.0 | 10.0 | 0.00 | 0.03 | 0.00 | 94 | 1012.5 |
| 20260904130846 | 72 | 360 | 6.0 | 9.0 | 0.00 | 0.03 | 0.00 | 94 | 1012.6 |
| 20260904130400 | 72 | 360 | 3.0 | 7.0 | 0.00 | 0.03 | 0.00 | 94 | 1012.5 |
| 20260904125827 | 72 | 360 | 3.0 | 7.0 | 0.00 | 0.03 | 0.00 | 94 | 1012.5 |
| 20260904125336 | 72 | 360 | 3.0 | 8.0 | 0.00 | 0.03 | 0.00 | 94 | 1012.4 |
| 20260904124823 | 72 | 360 | 3.0 | 8.0 | 0.00 | 0.03 | 0.00 | 95 | 1012.3 |
| 20260904124332 | 72 | 360 | 2.0 | 7.0 | 0.00 | 0.03 | 0.00 | 95 | 1012.2 |
| 20260904123834 | 71 | 360 | 2.0 | 6.0 | 0.00 | 0.03 | 0.00 | 95 | 1011.9 |
| 20260904123324 | 71 | 360 | 2.0 | 5.0 | 0.00 | 0.03 | 0.00 | 95 | 1011.9 |
| 20260904122833 | 71 | 360 | 1.0 | 5.0 | 0.00 | 0.03 | 0.00 | 95 | 1011.9 |
| 20260904122323 | 71 | 360 | 2.0 | 4.0 | 0.00 | 0.03 | 0.00 | 95 | 1011.7 |
| 20260904121832 | 71 | 360 | 2.0 | 3.0 | 0.00 | 0.03 | 0.00 | 95 | 1011.6 |
| 20260904121341 | 71 | 360 | 1.0 | 4.0 | 0.00 | 0.03 | 0.00 | 95 | 1011.5 |
| 20260904120828 | 71 | 360 | 0.0 | 6.0 | 0.00 | 0.03 | 0.00 | 95 | 1011.5 |
| 20260904120338 | 71 | 360 | 2.0 | 6.0 | 0.00 | 0.03 | 0.00 | 94 | 1011.4 |
| 20260904115825 | 71 | 360 | 3.0 | 5.0 | 0.00 | 0.03 | 0.00 | 95 | 1011.4 |
| 20260904115333 | 71 | 360 | 1.0 | 6.0 | 0.00 | 0.03 | 0.00 | 95 | 1011.1 |
| 20260904114822 | 71 | 360 | 3.0 | 6.0 | 0.00 | 0.03 | 0.00 | 94 | 1010.9 |
| 20260904114333 | 71 | 360 | 2.0 | 7.0 | 0.00 | 0.03 | 0.00 | 94 | 1010.8 |
| 20260904113840 | 72 | 360 | 3.0 | 7.0 | 0.00 | 0.03 | 0.00 | 94 | 1010.7 |
| 20260904113327 | 72 | 360 | 5.0 | 8.0 | 0.00 | 0.03 | 0.00 | 94 | 1010.7 |
| 20260904112838 | 73 | 360 | 3.0 | 8.0 | 0.00 | 0.03 | 0.00 | 94 | 1010.7 |
| 20260904112325 | 73 | 360 | 2.0 | 6.0 | 0.00 | 0.03 | 0.00 | 95 | 1010.5 |
| 20260904111834 | 73 | 360 | 3.0 | 14.0 | 0.00 | 0.03 | 0.00 | 95 | 1010.5 |
| 20260904111325 | 73 | 360 | 5.0 | 14.0 | 0.00 | 0.03 | 0.00 | 95 | 1010.4 |
| 20260904110832 | 74 | 360 | 7.0 | 12.0 | 0.00 | 0.03 | 0.00 | 95 | 1010.4 |
| 20260904110321 | 74 | 360 | 6.0 | 9.0 | 0.00 | 0.03 | 0.00 | 95 | 1010.1 |
| 20260904105830 | 74 | 360 | 1.0 | 9.0 | 0.00 | 0.03 | 0.00 | 95 | 1010.1 |
| 20260904105338 | 74 | 360 | 5.0 | 9.0 | 0.00 | 0.03 | 0.00 | 95 | 1010.2 |
| 20260904104825 | 74 | 360 | 0.0 | 0.0 | 0.00 | 0.03 | 0.00 | 95 | 1010.0 |
| 20260904104331 | 74 | 360 | 0.0 | 0.0 | 0.00 | 0.03 | 0.00 | 95 | 1009.9 |
| 20260904103905 | 74 | 171 | 0.0 | 0.0 | 0.00 | 0.03 | 0.03 | 95 | 1009.9 |
| 20260904103355 | 74 | 171 | 0.0 | 0.0 | 0.00 | 0.03 | 0.03 | 95 | 1009.7 |
| 20260904102843 | 75 | 360 | 0.0 | 0.0 | 0.00 | 0.03 | 0.03 | 95 | 1009.8 |
| 20260904102331 | 75 | 360 | 0.0 | 0.0 | 0.00 | 0.03 | 0.03 | 95 | 1009.8 |
| 20260904101907 | 75 | 360 | 0.0 | 0.0 | 0.00 | 0.03 | 0.03 | 95 | 1009.8 |
| 20260904101356 | 75 | 360 | 0.0 | 0.0 | 0.00 | 0.03 | 0.03 | 94 | 1009.7 |
| 20260904100822 | 75 | 360 | 0.0 | 0.0 | 0.00 | 0.03 | 0.03 | 94 | 1009.7 |
| 20260904100358 | 75 | 360 | 0.0 | 0.0 | 0.00 | 0.03 | 0.03 | 94 | 1009.9 |
| 20260904095826 | 75 | 172 | 0.0 | 0.0 | 0.00 | 0.03 | 0.03 | 94 | 1009.7 |
| 20260904095335 | 75 | 360 | 0.0 | 0.0 | 0.00 | 0.03 | 0.03 | 94 | 1009.9 |
| 20260904094824 | 75 | 360 | 0.0 | 0.0 | 0.00 | 0.03 | 0.03 | 94 | 1009.8 |
| 20260904094336 | 75 | 360 | 0.0 | 0.0 | 0.00 | 0.03 | 0.03 | 93 | 1009.8 |